KG6SIB Weather Reports


time (UTC)temp
F
wind
direction
speed
knots
gust
knots
rain 1hr
in
rain 24hr
in
rain mn
in
humidity
%
barometer
mb
20260505054636 47 244 1.7 9.6 0.00 0.00 0.00 87 1014.4
20260505054137 47 192 1.7 9.6 0.00 0.00 0.00 87 1014.4
20260505053637 47 246 1.7 7.8 0.00 0.00 0.00 87 1014.5
20260505053137 47 237 2.6 7.8 0.00 0.00 0.00 86 1014.5
20260505052636 47 235 5.2 9.6 0.00 0.00 0.00 86 1014.6
20260505052137 47 227 3.5 9.6 0.00 0.00 0.00 85 1014.7
20260505051637 47 242 4.3 9.6 0.00 0.00 0.00 85 1014.7
20260505051136 47 241 7.0 12.2 0.00 0.00 0.00 86 1014.7
20260505050636 47 228 1.7 12.2 0.00 0.00 0.00 85 1014.8
20260505050136 47 238 3.5 10.4 0.00 0.00 0.00 86 1014.8
20260505041636 47 198 4.3 8.7 0.00 0.00 0.00 87 1014.3
20260505041135 47 240 3.5 12.2 0.00 0.00 0.00 86 1014.3
20260505040636 47 219 5.2 12.2 0.00 0.00 0.00 86 1014.4
20260505040136 47 244 6.1 12.2 0.00 0.00 0.00 86 1014.4
20260505035636 47 240 8.7 10.4 0.00 0.00 0.00 86 1014.3
20260505034635 47 231 1.7 11.3 0.00 0.00 0.00 85 1014.2
20260505034135 48 252 9.6 11.3 0.00 0.00 0.00 85 1014.3
20260505033635 48 227 3.5 10.4 0.00 0.00 0.00 86 1014.3
20260505033136 48 234 5.2 12.2 0.00 0.00 0.00 86 1014.1
20260505032135 48 219 6.1 11.3 0.00 0.00 0.00 85 1014.1
20260505031635 48 240 5.2 10.4 0.00 0.00 0.00 83 1014.3
20260505031135 48 228 3.5 10.4 0.00 0.00 0.00 83 1014.0
20260505030635 49 204 2.6 10.4 0.00 0.00 0.00 83 1013.9
20260505030135 49 248 2.6 11.3 0.00 0.00 0.00 83 1013.9
20260505025635 49 205 5.2 12.2 0.00 0.00 0.00 82 1013.8
20260505024635 49 223 4.3 12.2 0.00 0.00 0.00 82 1013.6
20260505024135 49 236 2.6 11.3 0.00 0.00 0.00 81 1013.4
20260505023635 49 210 4.3 12.2 0.00 0.00 0.00 80 1013.5
20260505023135 49 239 8.7 12.2 0.00 0.00 0.00 80 1013.5
20260505022635 49 202 3.5 11.3 0.00 0.00 0.00 79 1013.6
20260505022134 50 251 8.7 13.0 0.00 0.00 0.00 78 1013.5
20260505021634 50 229 7.8 13.0 0.00 0.00 0.00 77 1013.6
20260505021135 50 227 4.3 13.9 0.00 0.00 0.00 76 1013.7
20260505020635 51 225 8.7 13.9 0.00 0.00 0.00 75 1013.8
20260505020134 51 229 3.5 13.9 0.00 0.00 0.00 75 1013.6
20260505015135 52 227 4.3 10.4 0.00 0.00 0.00 74 1013.3
20260505014634 52 243 5.2 13.9 0.00 0.00 0.00 73 1013.3
20260505014135 52 182 2.6 18.2 0.00 0.00 0.00 73 1013.4
20260505013634 52 209 10.4 18.2 0.00 0.00 0.00 73 1013.6
20260505013134 52 225 8.7 15.6 0.00 0.00 0.00 72 1013.5
20260505012634 53 242 7.8 14.8 0.00 0.00 0.00 71 1013.8
20260505012134 53 199 7.8 17.4 0.00 0.00 0.00 69 1013.9
20260505011634 54 188 5.2 17.4 0.00 0.00 0.00 68 1013.8
20260505011134 54 248 6.1 16.5 0.00 0.00 0.00 68 1013.7
20260505010634 54 242 11.3 16.5 0.00 0.00 0.00 67 1013.7
20260505010133 54 198 7.8 13.9 0.00 0.00 0.00 66 1013.9
20260505005634 55 215 4.3 14.8 0.00 0.00 0.00 66 1014.2
20260505005133 55 229 7.8 14.8 0.00 0.00 0.00 66 1014.1
20260505004633 55 220 7.0 12.2 0.00 0.00 0.00 66 1014.1
20260505004134 56 217 4.3 13.0 0.00 0.00 0.00 64 1014.0
20260505003634 56 194 4.3 13.0 0.00 0.00 0.00 64 1014.1
20260505003134 57 257 10.4 13.9 0.00 0.00 0.00 63 1014.3
20260505002634 57 259 10.4 13.9 0.00 0.00 0.00 62 1014.3
20260505002134 57 236 6.1 13.9 0.00 0.00 0.00 63 1014.4
20260505001633 57 220 2.6 13.0 0.00 0.00 0.00 62 1014.3
20260505000633 55 219 5.2 13.9 0.00 0.00 0.00 64 1014.1
20260505000133 56 215 1.7 13.0 0.00 0.00 0.00 64 1014.3
20260504235633 56 215 8.7 13.0 0.00 0.00 0.00 64 1014.5
20260504235133 55 204 5.2 13.0 0.00 0.00 0.00 64 1014.4
20260504233133 55 201 4.3 13.0 0.00 0.00 0.00 63 1014.2
20260504232633 55 240 4.3 13.0 0.00 0.00 0.00 62 1014.1
20260504232132 55 211 9.6 13.0 0.00 0.00 0.00 63 1014.2
20260504231632 55 265 3.5 8.7 0.00 0.00 0.00 63 1014.1
20260504231132 55 214 1.7 8.7 0.00 0.00 0.00 62 1014.1
20260504230632 56 228 1.7 12.2 0.00 0.00 0.00 63 1014.6
20260504230133 56 254 8.7 13.9 0.00 0.00 0.00 62 1014.5
20260504225632 56 224 2.6 13.9 0.00 0.00 0.00 61 1014.4
20260504225133 56 249 8.7 13.0 0.00 0.00 0.00 61 1014.4
20260504224632 56 233 5.2 13.0 0.00 0.00 0.00 62 1014.5
20260504224132 56 251 6.1 13.9 0.00 0.00 0.00 62 1014.5
20260504223132 57 234 2.6 13.0 0.00 0.00 0.00 60 1014.2
20260504222632 57 235 9.6 11.3 0.00 0.00 0.00 60 1014.5
20260504222132 57 217 7.0 11.3 0.00 0.00 0.00 61 1014.7
20260504221632 56 225 6.1 12.2 0.00 0.00 0.00 61 1014.8
20260504221132 56 227 5.2 12.2 0.00 0.00 0.00 60 1014.8
20260504220632 56 255 6.1 13.0 0.00 0.00 0.00 61 1014.8
20260504215632 57 180 2.6 14.8 0.00 0.00 0.00 60 1015.1
20260504215132 58 253 7.8 14.8 0.00 0.00 0.00 60 1015.0
20260504214632 58 247 10.4 15.6 0.00 0.00 0.00 60 1015.1
20260504214131 58 224 1.7 15.6 0.00 0.00 0.00 61 1015.1
20260504213631 58 217 2.6 14.8 0.00 0.00 0.00 61 1015.2
20260504213132 58 215 2.6 13.0 0.00 0.00 0.00 60 1015.3
20260504212631 58 202 3.5 13.0 0.00 0.00 0.00 60 1015.3
20260504211631 59 221 3.5 11.3 0.00 0.00 0.00 57 1015.6
20260504211131 59 255 3.5 13.0 0.00 0.00 0.00 60 1015.5
20260504210631 58 158 2.6 13.9 0.00 0.00 0.00 59 1015.3
20260504210132 58 248 9.6 13.9 0.00 0.00 0.00 58 1015.2
20260504205631 59 205 3.5 13.9 0.00 0.00 0.00 59 1015.6
20260504205131 59 260 5.2 15.6 0.00 0.00 0.00 59 1015.7
20260504204631 59 230 7.0 15.6 0.00 0.00 0.00 60 1015.5
20260504204131 58 211 4.3 12.2 0.00 0.00 0.00 59 1015.1
20260504203131 59 231 6.1 13.9 0.00 0.00 0.00 57 1015.6
20260504202631 59 232 5.2 12.2 0.00 0.00 0.00 60 1015.7
20260504202131 58 218 1.7 13.0 0.00 0.00 0.00 60 1015.4
20260504200130 57 241 11.3 13.9 0.00 0.00 0.00 61 1015.5
20260504195630 57 236 2.6 13.9 0.00 0.00 0.00 64 1015.6
20260504194130 57 172 2.6 12.2 0.00 0.00 0.00 63 1015.6
20260504193631 57 235 2.6 12.2 0.00 0.00 0.00 64 1015.7
20260504193130 56 202 1.7 12.2 0.00 0.00 0.00 65 1015.5
20260504192631 55 240 2.6 12.2 0.00 0.00 0.00 66 1015.4
20260504192130 55 252 6.1 12.2 0.00 0.00 0.00 68 1015.2
20260504191630 55 244 6.1 9.6 0.00 0.00 0.00 70 1015.2
20260504191130 55 232 2.6 10.4 0.00 0.00 0.00 68 1015.3
20260504190130 54 222 4.3 12.2 0.00 0.00 0.00 73 1015.3
20260504185630 53 225 5.2 9.6 0.00 0.00 0.00 73 1015.4
20260504184630 53 242 2.6 11.3 0.00 0.00 0.00 73 1015.5
20260504183129 52 227 7.0 10.4 0.00 0.00 0.00 75 1015.3
20260504182630 53 231 0.9 10.4 0.00 0.00 0.00 75 1015.4
20260504182130 53 238 7.0 9.6 0.00 0.00 0.00 73 1015.5
20260504181629 53 220 4.3 11.3 0.00 0.00 0.00 74 1015.5
20260504181130 53 200 2.6 11.3 0.00 0.00 0.00 74 1015.4
20260504180630 52 214 4.3 9.6 0.00 0.00 0.00 77 1015.0
20260504180129 52 272 6.1 10.4 0.00 0.00 0.00 76 1015.0
20260504175630 52 229 5.2 10.4 0.00 0.00 0.00 74 1015.3
20260504175129 53 236 7.8 9.6 0.00 0.00 0.00 72 1015.4
20260504174630 53 244 2.6 10.4 0.00 0.00 0.00 73 1015.4
20260504174129 52 260 5.2 10.4 0.00 0.00 0.00 75 1015.2
20260504173629 52 230 7.0 8.7 0.00 0.00 0.00 75 1015.2
20260504173129 52 219 0.9 9.6 0.00 0.00 0.00 76 1015.2
20260504172129 51 231 6.1 10.4 0.00 0.00 0.00 78 1014.8
20260504171128 50 232 6.1 11.3 0.00 0.00 0.00 79 1014.6
20260504170629 50 238 7.8 11.3 0.00 0.00 0.00 80 1014.5
20260504170129 50 233 5.2 10.4 0.00 0.00 0.00 80 1014.4
20260504160128 50 202 4.3 8.7 0.00 0.00 0.00 76 1014.3
20260504151127 48 246 0.9 9.6 0.00 0.00 0.00 87 1014.0
20260504150628 47 229 7.0 10.4 0.00 0.00 0.00 89 1013.5
20260504150128 47 225 3.5 10.4 0.00 0.00 0.00 90 1013.5
20260504141126 45 208 4.3 9.6 0.00 0.00 0.00 91 1013.1
20260504140627 45 217 0.0 9.6 0.00 0.00 0.00 91 1013.2
20260504140126 45 226 3.5 8.7 0.00 0.00 0.00 91 1013.5
20260504130626 45 239 3.5 9.6 0.00 0.00 0.00 92 1013.0
20260504130126 45 236 3.5 9.6 0.00 0.00 0.00 92 1012.9
20260504120126 46 242 7.0 10.4 0.00 0.00 0.00 92 1013.3
20260504110625 46 260 3.5 12.2 0.00 0.00 0.00 91 1013.6
20260504110125 46 259 7.0 12.2 0.00 0.00 0.00 91 1013.6
20260504100124 47 243 7.0 10.4 0.00 0.00 0.00 91 1013.7
20260504090124 47 254 6.1 8.7 0.00 0.00 0.00 89 1014.3
20260504081623 47 209 2.6 11.3 0.00 0.00 0.00 89 1014.7
20260504081123 47 250 7.0 9.6 0.00 0.00 0.00 89 1014.8
20260504080623 47 232 6.1 7.8 0.00 0.00 0.00 89 1014.9
20260504080123 47 217 5.2 11.3 0.00 0.00 0.00 89 1015.1
20260504070152 48 227 7.8 12.2 0.00 0.00 0.00 88 1014.9
20260504060122 48 229 1.7 8.7 0.00 0.00 0.00 89 1014.6